"Pseudo-MPEC" for CCD5PV2

Created 2024 Dec 31 14:31:07 UT using Find_Orb

Click here for an explanation of pseudo-MPECs

 
 Astrometry: 
     CCD5PV2*1C2024 11 26.25661105 05 43.984+57 35 11.08   ~BQ72 21.58GVNEOCPG96
     CCD5PV2 1C2024 11 26.26306305 05 42.702+57 35 06.97   ~BQ72 21.03GVNEOCPG96
     CCD5PV2 1C2024 11 26.26952905 05 41.460+57 35 02.72   ~BQ72 21.35GVNEOCPG96
     CCD5PV2 1C2024 11 26.27601505 05 40.308+57 34 58.55   ~BQ72 21.02GVNEOCPG96
     CCD5PV2 KC2024 11 26.35352305 05 25.250+57 34 06.30   ~BQ9V       VNEOCPI52
     CCD5PV2 KC2024 11 26.36132605 05 23.820+57 34 01.00   ~BQ9V       VNEOCPI52
     CCD5PV2 KC2024 11 26.36913205 05 22.460+57 33 55.70   ~BQ9V 20.48GVNEOCPI52
     CCD5PV2 KC2024 11 26.48203605 05 00.726+57 32 38.40   ~BQD2 21.11GVNEOCPI52
     CCD5PV2 KC2024 11 26.49066505 04 58.962+57 32 32.50   ~BQD2 21.18GVNEOCPI52
     CCD5PV2 KC2024 11 26.50135005 04 57.014+57 32 24.90   ~BQD2 21.20GVNEOCPI52
     CCD5PV2 KC2024 11 29.32481104 56 02.530+56 58 11.30   ~BT8V       VNEOCPI52
     CCD5PV2 KC2024 11 29.32775504 56 01.990+56 58 09.50   ~BT8V 21.33GVNEOCPI52
     CCD5PV2 KC2024 11 29.33297204 56 00.900+56 58 03.30   ~BT8Vx      VNEOCPI52
     CCD5PV2 KC2024 11 29.33808704 56 00.060+56 58 02.00   ~BT8V 20.69GVNEOCPI52
     CCD5PV2 KC2024 11 30.28457204 53 02.37 +56 45 33.1    ~BU7V 21.7 GVNEOCPH21
     CCD5PV2 KC2024 11 30.28755404 53 01.79 +56 45 30.6    ~BU7V 21.7 GVNEOCPH21
     CCD5PV2 0C2024 12 04.34366 04 40 34.04 +55 46 34.9    ~C5Al       VNEOCPU94
     CCD5PV2 0C2024 12 04.35710 04 40 31.58 +55 46 21.8    ~C5Al 21.3 GVNEOCPU94
     CCD5PV2 KC2024 12 04.77860 04 39 15.84 +55 39 42.8    ~C5F2       VNEOCP587
     CCD5PV2 KC2024 12 04.78165 04 39 15.29 +55 39 39.9    ~C5F2 21.1 GVNEOCP587
     CCD5PV2 !C2024 12 07.29714 04 31 48.52 +54 58 16.7    ~C782 21.2 GVNEOCP673
     CCD5PV2 !C2024 12 07.31039 04 31 46.28 +54 58 03.3    ~C782       VNEOCP673
     CCD5PV2 !C2024 12 07.31688 04 31 45.11 +54 57 56.9    ~C782       VNEOCP673
     CCD5PV2 1C2024 12 10.32735004 23 10.927+54 04 21.80   ~CAG2       LNEOCP658
     CCD5PV2 1C2024 12 10.32958304 23 10.551+54 04 19.34   ~CAG2       LNEOCP658
     CCD5PV2 1C2024 12 10.33180604 23 10.175+54 04 16.81   ~CAG2       LNEOCP658
     CCD5PV2 1C2024 12 10.33403904 23 09.852+54 04 14.18   ~CAG2       LNEOCP658
     CCD5PV2 KB2024 12 28.75402 03 40 52.43 +47 28 54.9    ~CUCH 21.2 GVNEOCP204
     CCD5PV2 KB2024 12 28.80604 03 40 46.79 +47 27 42.4    ~CUCH       VNEOCP204

Station data:
(204) Schiaparelli Observatory  (N45.868292 E8.769720)  Italy.  Observer L.
   Buzzi. 0.84-m f/3.5 reflector + CCD.
(587) Sormano  (N45.882946 E9.229180)  Italy.  Observers E. Colzani, E. Valli.
    Measurer P. Sicoli. 0.5-m f/6.8 reflector + CCD.
(658) Dominion Astrophysical Observatory  (N48.519984 W123.417000)
   Canada/BritColumbia.  Observer D. D. Balam. Measurers D. D. Balam, D. W.
   E. Green, C. E. Spratt. 1.82-m reflector + CCD.
(673) Table Mountain Observatory, Wrightwood  (N34.381485 W117.682170)
   US/California.  Observers J. Chesley, J. Pittichova. Measurer W. M. Owen
   Jr. 0.61-m f/16 reflector + CCD.
(G96) Mt. Lemmon Survey  (N32.442729 W110.788720)  US/Arizona.  Observer E.
   J. Christensen.  + 10K CCD.
(H21) Astronomical Research Observatory, Westfield  (N39.483054 W87.968270)
   US/Illinois.  Observer R. Holmes. Measurers S. Foglia, L. Buzzi, T.
   Linder, R. Holmes. 0.40-m f/5.32 astrograph + CCD.
(I52) Steward Observatory, Mt. Lemmon Station  (N32.442570 W110.788920)
   US/Arizona.  Observers T. A. Pruyne, B. M. Africano, E. J. Christensen, G.
   A. Farneth, D. C. Fuls, A. R. Gibbs, A. D. Grauer, H. Gröller, J. A.
   Johnson, R. A. Kowalski, S. M. Larson, G. J. Leonard, D. Rankin, R. L.
   Seaman, F. C. Shelly, K. W. Wierzchoś. 1.0-m prime focus + CCD.
(U94) iTelescope Observatory, Beryl Junction  (N37.737780 W113.697500)
   US/Utah.  Observer H. Sato. 0.51-m f/6.8 astrograph + f/4.5 focal reducer
   + CCD.

Orbital elements:  CCD5PV2
   Perihelion 2025 Feb 27.56267 +/- 0.0964 TT = 13:30:14 (JD 2460734.06267)
Epoch 2024 Dec 28.0 TT = JDT 2460672.5                           AutoNEOCP
q   3.72113388 +/- 0.000605         (J2000 ecliptic)
H   15.61 G 0.15                    Peri.  168.02588 +/- 0.020
z  -0.0010709597 +/- 0.000434       Node   241.92677 +/- 0.007
e   1.0039851 +/- 0.00162           Incl.  116.65760 +/- 0.011
28 of 29 observations 2024 Nov. 26-Dec. 28; mean residual 0".36
Residuals in arcseconds: 
241126 G96  .23+  .20-    241129 I52  .61-  .53-    241207 673  1.1-  .45-    
241126 G96  .12-  .01-    241129 I52  .45-  .05-    241207 673  .23-  .26-    
241126 G96  .12-  .05+    241129 I52( 1.2-  2.2-)   241207 673  .44-  .00     
241126 G96  .63+  .21+    241129 I52  .16-  .46+    241210 658  .16+  .48+    
241126 I52  .69-  .08+    241130 H21  .16+  .08+    241210 658  .16+  .49+    
241126 I52  .13-  .07+    241130 H21  .02+  .01-    241210 658  .14+  .43+    
241126 I52  1.0+  .06+    241204 U94  .08+  .23+    241210 658  .61+  .28+    
241126 I52  .40+  .09+    241204 U94  .03+  .24-    241228 204  .12+  .09-    
241126 I52  .51-  .15+    241204 587  .38+  .35-    241228 204  .12-  .05-    
241126 I52  .26+  .06-    241204 587  .39+  .39-    

Ephemerides (geocentric):
Date (UTC) HH   RA             Dec           delta  r     elong  mag " sig PA
---- --------  ------------   ------------  ------ ------ -----  --- --------
2024 12 31 15  03 35 59.069   +46 21 44.32  2.9891 3.7569 135.8 21.5 .290 120
2024 12 31 16  03 35 55.014   +46 20 45.67  2.9894 3.7569 135.7 21.5 .292 120
2024 12 31 17  03 35 50.964   +46 19 47.02  2.9898 3.7568 135.7 21.5 .294 120
2024 12 31 18  03 35 46.920   +46 18 48.36  2.9901 3.7568 135.7 21.5 .296 119
2024 12 31 19  03 35 42.882   +46 17 49.71  2.9904 3.7567 135.6 21.5 .297 119
2024 12 31 20  03 35 38.850   +46 16 51.05  2.9908 3.7567 135.6 21.5 .299 119
2024 12 31 21  03 35 34.823   +46 15 52.38  2.9911 3.7566 135.5 21.5 .301 119
2024 12 31 22  03 35 30.802   +46 14 53.72  2.9915 3.7566 135.5 21.5 .303 119
2024 12 31 23  03 35 26.786   +46 13 55.05  2.9918 3.7565 135.5 21.5 .305 119
2025 01 01 00  03 35 22.777   +46 12 56.38  2.9921 3.7565 135.4 21.5 .307 119
2025 01 01 01  03 35 18.773   +46 11 57.71  2.9925 3.7564 135.4 21.5 .309 119
2025 01 01 02  03 35 14.774   +46 10 59.04  2.9928 3.7564 135.3 21.5 .311 118
2025 01 01 03  03 35 10.781   +46 10 00.37  2.9932 3.7563 135.3 21.5 .313 118
2025 01 01 04  03 35 06.794   +46 09 01.70  2.9935 3.7563 135.3 21.5 .315 118
2025 01 01 05  03 35 02.813   +46 08 03.02  2.9938 3.7562 135.2 21.5 .317 118
2025 01 01 06  03 34 58.837   +46 07 04.34  2.9942 3.7562 135.2 21.5 .319 118
2025 01 01 07  03 34 54.866   +46 06 05.66  2.9945 3.7561 135.1 21.5 .321 118
2025 01 01 08  03 34 50.902   +46 05 06.98  2.9949 3.7561 135.1 21.5 .323 118
2025 01 01 09  03 34 46.943   +46 04 08.30  2.9952 3.7560 135.1 21.5 .325 118
2025 01 01 10  03 34 42.990   +46 03 09.62  2.9956 3.7560 135.0 21.5 .327 118
2025 01 01 11  03 34 39.042   +46 02 10.93  2.9959 3.7559 135.0 21.5 .329 117
2025 01 01 12  03 34 35.100   +46 01 12.25  2.9963 3.7559 134.9 21.5 .331 117
2025 01 01 13  03 34 31.163   +46 00 13.56  2.9966 3.7558 134.9 21.5 .333 117
2025 01 01 14  03 34 27.233   +45 59 14.88  2.9970 3.7558 134.9 21.5 .335 117
2025 01 01 15  03 34 23.307   +45 58 16.19  2.9973 3.7557 134.8 21.5 .337 117
2025 01 01 16  03 34 19.388   +45 57 17.50  2.9977 3.7557 134.8 21.5 .339 117
2025 01 01 17  03 34 15.474   +45 56 18.82  2.9980 3.7556 134.7 21.5 .341 117
2025 01 01 18  03 34 11.566   +45 55 20.13  2.9984 3.7556 134.7 21.5 .343 117
2025 01 01 19  03 34 07.663   +45 54 21.44  2.9987 3.7555 134.6 21.5 .345 117
2025 01 01 20  03 34 03.766   +45 53 22.75  2.9991 3.7555 134.6 21.5 .347 116
2025 01 01 21  03 33 59.874   +45 52 24.06  2.9994 3.7554 134.6 21.5 .349 116
2025 01 01 22  03 33 55.988   +45 51 25.37  2.9998 3.7554 134.5 21.5 .351 116
2025 01 01 23  03 33 52.108   +45 50 26.68  3.0002 3.7553 134.5 21.5 .353 116
2025 01 02 00  03 33 48.233   +45 49 27.99  3.0005 3.7553 134.4 21.5 .355 116
2025 01 02 01  03 33 44.364   +45 48 29.30  3.0009 3.7552 134.4 21.5 .357 116
2025 01 02 02  03 33 40.501   +45 47 30.61  3.0012 3.7552 134.4 21.5 .359 116
2025 01 02 03  03 33 36.643   +45 46 31.92  3.0016 3.7551 134.3 21.5 .361 116
2025 01 02 04  03 33 32.791   +45 45 33.23  3.0019 3.7551 134.3 21.6 .363 116
2025 01 02 05  03 33 28.944   +45 44 34.54  3.0023 3.7550 134.2 21.6 .365 116
2025 01 02 06  03 33 25.103   +45 43 35.85  3.0027 3.7550 134.2 21.6 .368 115
2025 01 02 07  03 33 21.267   +45 42 37.17  3.0030 3.7549 134.2 21.6 .370 115
2025 01 02 08  03 33 17.437   +45 41 38.48  3.0034 3.7549 134.1 21.6 .372 115
2025 01 02 09  03 33 13.613   +45 40 39.79  3.0038 3.7548 134.1 21.6 .374 115
2025 01 02 10  03 33 09.794   +45 39 41.11  3.0041 3.7548 134.0 21.6 .376 115
2025 01 02 11  03 33 05.980   +45 38 42.42  3.0045 3.7547 134.0 21.6 .378 115
2025 01 02 12  03 33 02.173   +45 37 43.74  3.0048 3.7547 134.0 21.6 .380 115
2025 01 02 13  03 32 58.370   +45 36 45.05  3.0052 3.7546 133.9 21.6 .382 115
2025 01 02 14  03 32 54.574   +45 35 46.37  3.0056 3.7546 133.9 21.6 .384 115